Location: Allaines
(49.9632°N, 2.9458°E)
Time: 04:03:29
(UTC+00:00)

STARLINK-1200 - Pass Details

Date: 09 April 2020
Orbit: 549 x 550 km, 53.0° (Epoch: 01 June)

Event Time Altitude Azimuth Distance (km) Brightness Sun altitude
Rises 19:28:24 0° 290° (WNW) 2,787 9.6 -9.2°
Reaches altitude 10° 19:30:40 10° 291° (WNW) 1,890 8.0 -9.5°
Maximum altitude 19:34:59 81° 18° (NNE) 590 3.8 -10.2°
Enters shadow 19:38:33 15° 106° (ESE) 1,597 5.3 -10.7°
